timestamp,surface_pressure_avg,surface_temp_avg,battery_voltage,lat,long
2019-07-06 00:00:00+00:00,322.1413,10.64,13.05,47.84626,-54.09684
2019-07-06 00:10:00+00:00,329.4646,10.66,12.97,47.84626,-54.09684
2019-07-06 00:20:00+00:00,338.2897,10.58,12.97,47.84626,-54.09684
2019-07-06 00:30:00+00:00,345.1713,10.6,12.97,47.84626,-54.09684
2019-07-06 00:40:00+00:00,349.3113,10.6,12.97,47.84626,-54.09684
2019-07-06 00:50:00+00:00,353.7679,10.6,13.05,47.84626,-54.09684
2019-07-06 01:00:00+00:00,359.7729,10.61,12.97,47.84626,-54.09684
2019-07-06 01:10:00+00:00,365.4062,10.69,12.89,47.84626,-54.09684
2019-07-06 01:20:00+00:00,368.343,10.0,12.97,47.84626,-54.09684
2019-07-06 01:30:00+00:00,372.0563,9.9,12.97,47.84626,-54.09684
2019-07-06 01:40:00+00:00,376.7962,9.8,12.97,47.84626,-54.09684
2019-07-06 01:50:00+00:00,379.4513,9.8,12.97,47.84626,-54.09684
2019-07-06 02:00:00+00:00,379.8779,9.7,12.89,47.84626,-54.09684
2019-07-06 02:10:00+00:00,379.593,9.93,12.81,47.84626,-54.09684
2019-07-06 02:20:00+00:00,376.8513,10.0,12.89,47.84626,-54.09684
2019-07-06 02:30:00+00:00,375.7746,9.9,12.97,47.84626,-54.09684
2019-07-06 02:40:00+00:00,374.1812,10.0,12.97,47.84626,-54.09684
2019-07-06 02:50:00+00:00,370.9446,10.31,12.97,47.84626,-54.09684
2019-07-06 03:00:00+00:00,366.3796,10.4,12.89,47.84626,-54.09684
2019-07-06 03:10:00+00:00,363.7346,10.3,12.81,47.84626,-54.09684
2019-07-06 03:20:00+00:00,363.2546,10.3,12.89,47.84626,-54.09684
2019-07-06 03:30:00+00:00,356.8263,10.2,12.89,47.84626,-54.09684
2019-07-06 03:40:00+00:00,348.6613,10.2,12.97,47.84626,-54.09684
2019-07-06 03:50:00+00:00,344.2463,10.29,12.97,47.84626,-54.09684
2019-07-06 04:00:00+00:00,340.6996,10.2,12.89,47.84626,-54.09684
2019-07-06 04:10:00+00:00,331.7363,10.11,12.81,47.84626,-54.09684
2019-07-06 04:20:00+00:00,322.293,10.36,12.89,47.84626,-54.09684
2019-07-06 04:30:00+00:00,313.8147,10.6,12.89,47.84626,-54.09684
2019-07-06 04:40:00+00:00,304.7313,10.4,12.89,47.84626,-54.09684
2019-07-06 04:50:00+00:00,293.053,10.41,12.89,47.84626,-54.09684
2019-07-06 05:00:00+00:00,281.9865,10.96,12.81,47.84626,-54.09684
2019-07-06 05:10:00+00:00,271.368,11.4,12.81,47.84626,-54.09684
2019-07-06 05:20:00+00:00,260.218,11.4,12.89,47.84626,-54.09684
2019-07-06 05:30:00+00:00,249.5614,11.2,12.89,47.84626,-54.09684
2019-07-06 05:40:00+00:00,239.8248,11.1,12.89,47.84626,-54.09684
2019-07-06 05:50:00+00:00,228.6297,11.26,12.89,47.84626,-54.09684
2019-07-06 06:00:00+00:00,218.7131,11.39,12.81,47.84626,-54.09684
2019-07-06 06:10:00+00:00,210.2315,11.49,12.73,47.84626,-54.09684
2019-07-06 06:20:00+00:00,202.4048,11.59,12.81,47.84626,-54.09684
2019-07-06 06:30:00+00:00,192.3565,11.7,12.81,47.84626,-54.09684
2019-07-06 06:40:00+00:00,183.4365,11.7,12.89,47.84626,-54.09684
2019-07-06 06:50:00+00:00,179.5248,11.77,12.89,47.84626,-54.09684
2019-07-06 07:00:00+00:00,175.2148,11.9,12.81,47.84626,-54.09684
2019-07-06 07:10:00+00:00,169.3598,12.0,12.73,47.84626,-54.09684
2019-07-06 07:20:00+00:00,170.1649,12.0,12.81,47.84626,-54.09684
2019-07-06 07:30:00+00:00,172.7232,12.22,12.81,47.84626,-54.09684
2019-07-06 07:40:00+00:00,171.0065,12.3,12.81,47.84626,-54.09684
2019-07-06 07:50:00+00:00,168.3431,12.27,12.81,47.84626,-54.09684
2019-07-06 08:00:00+00:00,169.5798,12.46,12.81,47.84626,-54.09684
2019-07-06 08:10:00+00:00,172.2981,12.5,12.73,47.84626,-54.09684
2019-07-06 08:20:00+00:00,171.7681,12.58,12.81,47.84626,-54.09684
2019-07-06 08:30:00+00:00,171.718,12.62,12.81,47.84626,-54.09684
2019-07-06 08:40:00+00:00,175.4681,12.65,12.89,47.84626,-54.09684
2019-07-06 08:50:00+00:00,181.2698,12.6,12.89,47.84626,-54.09684
2019-07-06 09:00:00+00:00,185.7681,12.6,12.89,47.84626,-54.09684
2019-07-06 09:10:00+00:00,187.8081,12.62,12.81,47.84626,-54.09684
2019-07-06 09:20:00+00:00,189.4565,12.6,12.89,47.84626,-54.09684
2019-07-06 09:30:00+00:00,194.1248,12.31,12.89,47.84626,-54.09684
2019-07-06 09:40:00+00:00,199.2281,11.7,12.97,47.84626,-54.09684
2019-07-06 09:50:00+00:00,201.4115,11.63,13.05,47.84626,-54.09684
2019-07-06 10:00:00+00:00,204.7998,11.7,13.05,47.84626,-54.09684
2019-07-06 10:10:00+00:00,208.9448,11.7,13.05,47.84626,-54.09684
2019-07-06 10:20:00+00:00,211.5297,11.65,13.13,47.84626,-54.09684
2019-07-06 10:30:00+00:00,212.4948,11.6,13.21,47.84626,-54.09684
2019-07-06 10:40:00+00:00,216.4498,11.6,13.29,47.84626,-54.09684
2019-07-06 10:50:00+00:00,224.0164,11.5,13.44,47.84626,-54.09684
2019-07-06 11:00:00+00:00,231.6981,11.2,13.44,47.84626,-54.09684
2019-07-06 11:10:00+00:00,239.1964,11.0,13.37,47.84626,-54.09684
2019-07-06 11:20:00+00:00,245.9064,11.0,13.68,47.84626,-54.09684
2019-07-06 11:30:00+00:00,252.8414,11.0,13.68,47.84626,-54.09684
2019-07-06 11:40:00+00:00,258.2148,11.0,13.84,47.84626,-54.09684
2019-07-06 11:50:00+00:00,267.0114,11.0,14.0,47.84626,-54.09684
2019-07-06 12:00:00+00:00,276.2347,10.98,14.16,47.84626,-54.09684
2019-07-06 12:10:00+00:00,283.4831,10.9,14.08,47.84626,-54.09684
2019-07-06 12:20:00+00:00,287.808,10.86,14.4,47.84626,-54.09684
2019-07-06 12:30:00+00:00,297.283,10.79,15.35,47.84626,-54.09684
2019-07-06 12:40:00+00:00,304.3713,10.7,15.51,47.84626,-54.09684
2019-07-06 12:50:00+00:00,308.613,10.82,14.56,47.84626,-54.09684
2019-07-06 13:00:00+00:00,315.0747,10.8,14.4,47.84626,-54.09684
2019-07-06 13:10:00+00:00,323.948,10.76,14.32,47.84626,-54.09684
2019-07-06 13:20:00+00:00,327.173,10.58,14.72,47.84626,-54.09684
2019-07-06 13:30:00+00:00,327.8079,9.9,14.48,47.84626,-54.09684
2019-07-06 13:40:00+00:00,334.3329,9.97,14.4,47.84626,-54.09684
2019-07-06 13:50:00+00:00,338.5096,9.9,14.4,47.84626,-54.09684
2019-07-06 14:00:00+00:00,336.9896,9.9,14.32,47.84626,-54.09684
2019-07-06 14:10:00+00:00,336.2379,9.8,14.24,47.84626,-54.09684
2019-07-06 14:20:00+00:00,340.5214,10.0,14.4,47.84626,-54.09684
2019-07-06 14:30:00+00:00,342.3013,10.18,14.4,47.84626,-54.09684
2019-07-06 14:40:00+00:00,337.9429,10.32,14.48,47.84626,-54.09684
2019-07-06 14:50:00+00:00,337.9064,10.4,14.72,47.84626,-54.09684
2019-07-06 15:00:00+00:00,338.8246,10.42,14.56,47.84626,-54.09684
2019-07-06 15:10:00+00:00,334.3596,10.6,14.56,47.84626,-54.09684
2019-07-06 15:20:00+00:00,329.2079,10.73,14.64,47.84626,-54.09684
2019-07-06 15:30:00+00:00,329.543,10.8,14.64,47.84626,-54.09684
2019-07-06 15:40:00+00:00,328.3097,10.79,14.48,47.84626,-54.09684
2019-07-06 15:50:00+00:00,324.3497,10.77,14.56,47.84626,-54.09684
2019-07-06 16:00:00+00:00,325.213,10.8,14.48,47.84626,-54.09684
2019-07-06 16:10:00+00:00,319.8246,10.8,14.4,47.84626,-54.09684
2019-07-06 16:20:00+00:00,312.7497,10.8,14.4,47.84626,-54.09684
2019-07-06 16:30:00+00:00,307.548,10.87,14.32,47.84626,-54.09684
2019-07-06 16:40:00+00:00,303.228,10.89,14.4,47.84626,-54.09684
2019-07-06 16:50:00+00:00,292.763,10.89,14.32,47.84626,-54.09684
2019-07-06 17:00:00+00:00,282.9647,10.89,14.32,47.84626,-54.09684
2019-07-06 17:10:00+00:00,277.3447,10.89,14.24,47.84626,-54.09684
2019-07-06 17:20:00+00:00,269.4047,10.88,14.32,47.84626,-54.09684
2019-07-06 17:30:00+00:00,257.5564,10.9,14.24,47.84626,-54.09684
2019-07-06 17:40:00+00:00,248.8131,11.0,14.32,47.84626,-54.09684
2019-07-06 17:50:00+00:00,240.9865,11.02,14.24,47.84626,-54.09684
2019-07-06 18:00:00+00:00,229.6764,11.07,14.24,47.84626,-54.09684
2019-07-06 18:10:00+00:00,218.5414,11.09,14.16,47.84626,-54.09684
2019-07-06 18:20:00+00:00,212.7964,11.1,14.24,47.84626,-54.09684
2019-07-06 18:30:00+00:00,204.0198,11.13,14.24,47.84626,-54.09684
2019-07-06 18:40:00+00:00,195.9214,11.22,14.24,47.84626,-54.09684
2019-07-06 18:50:00+00:00,191.8998,11.3,14.24,47.84626,-54.09684
2019-07-06 19:00:00+00:00,186.1815,11.4,14.16,47.84626,-54.09684
2019-07-06 19:10:00+00:00,181.5398,11.57,14.08,47.84626,-54.09684
2019-07-06 19:20:00+00:00,178.0798,11.59,14.16,47.84626,-54.09684
2019-07-06 19:30:00+00:00,176.6098,11.6,14.16,47.84626,-54.09684
2019-07-06 19:40:00+00:00,177.5782,11.7,14.24,47.84626,-54.09684
2019-07-06 19:50:00+00:00,179.4315,11.66,14.24,47.84626,-54.09684
2019-07-06 20:00:00+00:00,179.5682,11.53,14.08,47.84626,-54.09684
2019-07-06 20:10:00+00:00,179.2665,11.52,14.0,47.84626,-54.09684
2019-07-06 20:20:00+00:00,180.6448,11.6,14.08,47.84626,-54.09684
2019-07-06 20:30:00+00:00,181.0448,11.59,14.08,47.84626,-54.09684
2019-07-06 20:40:00+00:00,182.6331,11.5,14.08,47.84626,-54.09684
2019-07-06 20:50:00+00:00,187.1082,11.5,14.08,47.84626,-54.09684
2019-07-06 21:00:00+00:00,191.0298,11.48,14.0,47.84626,-54.09684
2019-07-06 21:10:00+00:00,194.2765,11.66,13.84,47.84626,-54.09684
2019-07-06 21:20:00+00:00,198.2081,11.77,13.92,47.84626,-54.09684
2019-07-06 21:30:00+00:00,201.9914,11.8,13.92,47.84626,-54.09684
2019-07-06 21:40:00+00:00,206.4231,11.84,13.92,47.84626,-54.09684
2019-07-06 21:50:00+00:00,209.9431,11.89,13.92,47.84626,-54.09684
2019-07-06 22:00:00+00:00,215.4498,11.9,13.84,47.84626,-54.09684
2019-07-06 22:10:00+00:00,218.7398,11.9,13.68,47.84626,-54.09684
2019-07-06 22:20:00+00:00,221.8315,11.9,13.68,47.84626,-54.09684
2019-07-06 22:30:00+00:00,226.3931,11.8,13.6,47.84626,-54.09684
2019-07-06 22:40:00+00:00,231.4231,11.6,13.6,47.84626,-54.09684
2019-07-06 22:50:00+00:00,234.2614,11.5,13.53,47.84626,-54.09684
2019-07-06 23:00:00+00:00,239.0014,11.6,13.44,47.84626,-54.09684
2019-07-06 23:10:00+00:00,246.2014,11.68,13.29,47.84626,-54.09684
2019-07-06 23:20:00+00:00,252.6347,11.74,13.29,47.84626,-54.09684
2019-07-06 23:30:00+00:00,256.3381,11.8,13.21,47.84626,-54.09684
2019-07-06 23:40:00+00:00,262.1847,11.9,13.21,47.84626,-54.09684
2019-07-06 23:50:00+00:00,270.688,12.1,13.21,47.84626,-54.09684
